De Queen, AR

3:16 AM CST on January 21, 2020 (GMT -0600)
Helms Sevier County

Weather History for KDEQ - October, 2019

Change the Weather History Date:

Monday, October 28, 2019

  Actual Average Record
Temperature  
Mean Temperature 58 °F 60 °F  
Max Temperature 60 °F 73 °F 86 °F (2004)
Min Temperature 55 °F 47 °F 25 °F (2017)
Degree Days  
Heating Degree Days 8 7  
Month to date heating degree days 130 104  
Since 1 July heating degree days 130 113  
Cooling Degree Days 0 1  
Month to date cooling degree days 96 68  
Year to date cooling degree days 2313 1933  
Growing Degree Days 8 (Base 50)    
Moisture  
Dew Point 55 °F    
Average Humidity 90    
Maximum Humidity 100    
Minimum Humidity 84    
Precipitation  
Precipitation 0.00 in 0.14 in 0.84 in (1940)
Month to date precipitation 3.74 4.15  
Year to date precipitation 45.83 39.35  
Snow  
Snow 0.00 in - - ()
Month to date snowfall 0.0  
Since 1 July snowfall 0.0  
Since 1 September snowfall 0.0  
Snow Depth 0.00 in    
Sea Level Pressure  
Sea Level Pressure 30.02 in    
Wind  
Wind Speed 4 mph ()    
Max Wind Speed 9 mph    
Max Gust Speed 12 mph    
Visibility 4.4 miles    
Events      
T = Trace of Precipitation, MM = Missing Value Source: Averaged Metar Reports

Daily Weather History Graph

Daily Weather History Graph

Search for Another Location

Airport or City:

Astronomy

Oct. 28, 2019 Rise Set
Actual Time 7:33 AM CDT 6:28 PM CDT
Civil Twilight 7:07 AM CDT 6:54 PM CDT
Nautical Twilight 6:38 AM CDT 7:23 PM CDT
Astronomical Twilight 6:09 AM CDT 7:53 PM CDT
Moon 7:56 AM CDT (10/28) 7:15 PM CDT (10/28)
Length of Visible Light 11h 46m
Length of Day
10h 55m
New Moon, 0% of the Moon is Illuminated
Oct 28
New Moon
Nov 4
First Quarter
Nov 12
Full
Nov 19
Last Quarter
Nov 26
New

Hourly Weather History & Observations

Time (CDT) Temp. Dew Point Humidity Pressure Visibility Wind Dir Wind Speed Gust Speed Precip Events Conditions
12:53 AM 57.9 °F 55.0 °F 90% 30.01 in 7.0 mi East 3.5 mph - N/A   Overcast
1:53 AM 57.9 °F 55.0 °F 90% 30.01 in 6.0 mi ENE 4.6 mph - N/A   Overcast
2:34 AM 57.0 °F 55.0 °F 93% 30.02 in 3.0 mi East 4.6 mph - N/A   Overcast
2:46 AM 57.0 °F 55.0 °F 93% 30.02 in 2.5 mi East 3.5 mph - N/A   Overcast
2:53 AM 57.0 °F 55.0 °F 93% 30.01 in 1.8 mi ENE 4.6 mph - N/A   Overcast
3:53 AM 57.0 °F 55.0 °F 93% 30.02 in 1.2 mi East 4.6 mph - N/A   Overcast
4:53 AM 55.9 °F 55.0 °F 97% 30.02 in 1.8 mi East 5.8 mph - N/A   Overcast
5:51 AM 55.4 °F 53.6 °F 94% 30.03 in 2.0 mi East 6.9 mph - N/A   Overcast
5:53 AM 55.9 °F 54.0 °F 93% 30.02 in 1.8 mi East 6.9 mph - N/A   Overcast
7:38 AM 55.9 °F 54.0 °F 93% 30.04 in 2.0 mi East 5.8 mph - N/A   Overcast
8:16 AM 55.9 °F 54.0 °F 93% 30.05 in 1.8 mi East 5.8 mph - N/A   Overcast
8:30 AM 55.9 °F 54.0 °F 93% 30.05 in 2.5 mi ESE 6.9 mph - N/A   Overcast
8:38 AM 55.9 °F 54.0 °F 93% 30.06 in 3.0 mi ESE 5.8 mph - N/A   Overcast
8:53 AM 55.9 °F 54.0 °F 93% 30.05 in 3.0 mi ESE 5.8 mph - N/A   Overcast
9:53 AM 57.0 °F 55.0 °F 93% 30.05 in 5.0 mi East 6.9 mph - N/A   Overcast
10:53 AM 57.9 °F 55.9 °F 93% 30.05 in 6.0 mi ESE 5.8 mph - N/A   Overcast
12:29 PM 59.0 °F 55.9 °F 90% 30.03 in 2.5 mi ESE 5.8 mph - N/A   Overcast
12:48 PM 59.0 °F 55.4 °F 88% 30.03 in 3.0 mi ESE 3.5 mph - N/A   Overcast
12:53 PM 59.0 °F 57.0 °F 93% 30.02 in 3.0 mi Calm Calm - N/A   Overcast
1:18 PM 60.1 °F 55.9 °F 86% 30.02 in 5.0 mi SSE 5.8 mph - N/A   Overcast
1:53 PM 60.1 °F 55.9 °F 86% 30.00 in 7.0 mi South 5.8 mph - N/A   Overcast
2:53 PM 60.1 °F 55.9 °F 86% 29.97 in 6.0 mi SE 4.6 mph - N/A   Overcast
3:53 PM 60.1 °F 57.0 °F 90% 29.97 in 5.0 mi SE 5.8 mph - N/A   Overcast
4:53 PM 60.1 °F 55.9 °F 86% 29.98 in 6.0 mi Calm Calm - N/A   Overcast
5:02 PM 60.1 °F 55.9 °F 86% 29.99 in 6.0 mi SE 3.5 mph - N/A   Overcast
5:16 PM 60.1 °F 55.9 °F 86% 29.98 in 5.0 mi ESE 3.5 mph - N/A   Overcast
5:53 PM 59.0 °F 55.9 °F 90% 30.00 in 2.0 mi SE 4.6 mph - N/A   Overcast
6:01 PM 59.0 °F 55.9 °F 90% 30.01 in 1.2 mi SE 6.9 mph - N/A   Overcast
6:34 PM 59.0 °F 55.9 °F 90% 30.00 in 1.8 mi SE 3.5 mph - N/A   Overcast
6:41 PM 59.0 °F 55.9 °F 90% 30.00 in 2.5 mi ESE 4.6 mph - N/A   Overcast
6:50 PM 57.2 °F 55.4 °F 94% 30.00 in 3.0 mi East 8.1 mph - N/A   Overcast
6:53 PM 57.9 °F 55.9 °F 93% 29.99 in 3.0 mi East 8.1 mph - N/A   Overcast
7:15 PM 57.9 °F 55.0 °F 90% 30.00 in 7.0 mi East 4.6 mph - N/A   Scattered Clouds
7:37 PM 57.9 °F 55.0 °F 90% 30.02 in 7.0 mi ESE 4.6 mph - N/A   Mostly Cloudy
7:53 PM 57.9 °F 55.9 °F 93% 30.02 in 7.0 mi ESE 3.5 mph - N/A   Overcast
8:53 PM 59.0 °F 55.0 °F 87% 30.03 in 9.0 mi Calm Calm - N/A   Overcast
9:42 PM 59.0 °F 55.0 °F 87% 30.02 in 10.0 mi ESE 5.8 mph - N/A   Overcast
9:53 PM 59.0 °F 55.0 °F 87% 30.01 in 9.0 mi East 5.8 mph - N/A   Overcast
10:53 PM 59.0 °F 55.0 °F 87% 30.04 in 10.0 mi Calm Calm - N/A   Overcast
11:53 PM 59.0 °F 55.0 °F 87% 30.04 in 6.0 mi Calm Calm - N/A   Overcast